Location: Academy at Carrie F Thomas
(32.8490°N, 97.2053°W)
Time: 03:43:39
(UTC+00:00)

Meteor 1-25 Rocket - Pass Details

Date: 07 July 2022
Orbit: 835 x 892 km, 81.2° (Epoch: 13 August)

Event Time Altitude Azimuth Distance (km) Brightness Sun altitude
Exits shadow 08:16:21 41° 113° (ESE) 1,278 5.1 -29.4°
Maximum altitude 08:17:07 43° 92° (E) 1,238 5.1 -29.3°
Drops below altitude 10° 08:22:35 10° 23° (NNE) 2,558 7.6 -28.8°
Sets 08:25:08 0° 17° (NNE) 3,497 8.6 -28.5°
